927  
ASUS45 KBOU 240210  
RWRCO  
 
WEATHER ROUNDUP FOR COLORADO  
NATIONAL WEATHER SERVICE DENVER/BOULDER CO  
800 PM MDT WED SEP 23 2020  
 
NOTE: "FAIR" INDICATES FEW OR NO CLOUDS BELOW 12000 FEET WITH NO  
SIGNIFICANT WEATHER AND/OR S TO VISIBILITY
.  
 
COZ001>005-013-030-031-240300-   
..NORTHWEST COLORADO
 
 
 
CITY SKY/WX TMP DP RH WIND PRES REMARKS
 
CRAIG FAIR 63 28 26 SW5 30.25R  
HAYDEN FAIR 64 26 23 S7 30.28R  
MEEKER FAIR 61 27 27 CALM 30.26R  
RANGELY FAIR 58 42 56 CALM 30.18R  
RABBIT EARS PA FAIR 48 27 43 W6 30.53S  
STEAMBOAT SPGS FAIR 64 29 26 CALM 30.28R  
WALDEN FAIR 55 21 26 W5 30.38R  

 
 
COZ006>008-011-240300-   
..WEST CENTRAL VALLEYS
 
 
 
CITY SKY/WX TMP DP RH WIND PRES REMARKS
 
GRAND JUNCTION FAIR 72 32 23 NE9 30.14R  
MONTROSE FAIR 67 36 31 S5 30.24R  
EAGLE FAIR 69 28 21 SW8 30.28R  
RIFLE FAIR 71 39 31 NW5 30.19R  
DELTA FAIR 78 27 15 W3 30.18R  
NUCLA NOT AVBL  

 
 
COZ017>023-064>068-240300-   
..SOUTHWEST COLORADO
 
 
 
CITY SKY/WX TMP DP RH WIND PRES REMARKS
 
DURANGO FAIR 71 23 16 N10 30.21R  
CORTEZ FAIR 71 32 23 NW7 30.21R  
PAGOSA SPRINGS FAIR 65 31 29 CALM 30.30S  
TELLURIDE FAIR 55 21 26 CALM 30.47S  
WOLF CREEK PAS FAIR 46 21 36 N3 30.67S  

 
 
COZ009-010-012-014-032>034-037-058>063-240300-   
..CENTRAL COLORADO
 
 
 
CITY SKY/WX TMP DP RH WIND PRES REMARKS
 
ASPEN FAIR 58 29 33 S8 30.35R  
BUENA VISTA FAIR 58 27 29 W10 30.34R  
COPPER MTN FAIR 52 28 40 W8G22 30.64S  
BERTHOUD PASS FAIR 39 21 48 NW22G31 30.65S  
DAKOTA HILL MOCLDY 48 21 34 NW14 30.56R  
COTTONWOOD PAS FAIR 59 23 25 W7 30.47S  
GUNNISON FAIR 62 30 29 N7 30.34R  
GRANBY FAIR 59 26 28 CALM 30.38R  
KREMMLING FAIR 61 28 29 CALM 30.34R  
LEADVILLE FAIR 51 29 42 NE3 30.48R  
MONARCH PASS MOCLDY 46 21 36 N3 30.73R  
SALIDA FAIR 60 32 34 W6 30.38R  
SUNLIGHT FAIR 46 28 49 W9 30.59R  
WILKERSON PASS FAIR 50 21 32 NE13G18 30.60S  

 
 
COZ069>075-240300-   
..SAN LUIS VALLEY/SANGRE DE CRISTO MOUNTAINS
 
 
 
CITY SKY/WX TMP DP RH WIND PRES REMARKS
 
ALAMOSA FAIR 57 36 45 E8 30.29S  
DEL NORTE FAIR 59 31 34 W3 30.34R  
LA VETA PASS FAIR 50 30 46 CALM 30.50R  
SAGUACHE FAIR 63 30 29 NW12 30.33R  

 
 
COZ035-036-038>040-240300-   
..NORTHERN COLORADO FRONT RANGE
 
 
 
CITY SKY/WX TMP DP RH WIND PRES REMARKS
 
DENVER INTL AP FAIR 77 29 17 CALM 30.14R  
AURORA PTCLDY 69 29 22 SE8 30.16R  
WATKINS NOT AVBL  
ERIE FAIR 64 38 38 CALM 30.12R  
BOULDER FAIR 72 41 33 W3 30.14R  
CENTENNIAL FAIR 68 32 26 S7 30.17R  
BROOMFIELD NOT AVBL  
FORT COLLINS FAIR 71 48 43 NE7 30.13R  
LONGMONT FAIR 66 40 38 W6 30.14R  

 
 
COZ041-046-047-076>085-087-088-240300-   
..PIKES PEAK/PALMER DIVIDE AND SOUTHERN FOOTHILLS
 
 
 
CITY SKY/WX TMP DP RH WIND PRES REMARKS
 
COLO. SPRINGS FAIR 70 37 29 CALM 30.23R  
A. F. ACADEMY FAIR 60 34 37 N6 30.23  
SCHRIEVER AFB NOT AVBL  
CHEYENNE MTN FAIR 68 34 28 W7 30.22R  
ELLICOTT FAIR 63 44 49 S7 30.23  
FALCON FAIR 60 32 34 W6 30.28R  
FORT CARSON FAIR 69 36 30 W9 30.17S  
LIMON FAIR 59 32 36 NW3 30.14R  
MONUMENT HILL FAIR 55 32 41 S7 30.29R  
CANON CITY FAIR 72 37 28 NE3 30.16R  
WALSENBURG NOT AVBL  
TRINIDAD FAIR 69 36 29 CALM 30.19S  

 
 
COZ042>045-048>051-090-091-240300-   
..NORTHEAST COLORADO
 
 
 
CITY SKY/WX TMP DP RH WIND PRES REMARKS
 
GREELEY FAIR 74 38 27 NE7 30.10R  
AKRON FAIR 67 36 31 E3 30.08R  
BURLINGTON FAIR 67 33 28 W5 30.05S  
WRAY FAIR 70 41 35 NW8 30.01R  
YUMA FAIR 64 23 20 CALM 30.04R  
STERLING FAIR 70 36 28 CALM 30.02R  
HOLYOKE FAIR 63 48 59 CALM 30.01S  
FORT MORGAN FAIR 72 29 20 N8 30.09R  

 
 
COZ086-089-092>099-240300-   
..SOUTHEAST COLORADO
 
 
 
CITY SKY/WX TMP DP RH WIND PRES REMARKS
 
PUEBLO FAIR 70 43 37 CALM 30.11R  
LA JUNTA FAIR 72 39 30 W10 30.06S  
LAMAR FAIR 65 34 31 SW8 30.01R  
SPRINGFIELD N/A 67 43 41 S12 30.09R  

 
 
 
CLICK HERE TO GO TO PREVIOUS BULLETINS.

The Nexlab CO Page Main Text Page